This demonstration page uses our WeatherBlox Daily Observations layout. Learn more.

Left ArrowRight Arrow

32.84923, -109.75925

Hourly Observations for October 3, 2022

Temp ( °F °C ) Dew Point ( °F °C ) Humidity (%) Winds ( mph kmh ) Pressure ( in mb ) Visibility ( mi km ) Precip ( " mm )
12:51 am 00:51 Clear 73 22.8 51 10.6 46 46 ESE 9 15 29.91 1013 10 16 0.00 0.00
1:51 am 01:51 Clear 71 21.7 52 11.1 51 51 SE 9 15 29.91 1013 10 16 0.00 0.00
2:51 am 02:51 Clear 70 21.1 52 11.1 53 53 ESE 8 13 29.89 1012 10 16 0.00 0.00
3:51 am 03:51 Clear 67 19.4 52 11.1 59 59 SE 6 9 29.90 1012 10 16 0.00 0.00
4:51 am 04:51 Clear 66 18.9 52 11.1 61 61 SE 9 15 29.91 1013 10 16 0.00 0.00
5:51 am 05:51 Clear 64 17.8 52 11.1 65 65 E 8 13 29.94 1014 10 16 0.00 0.00
6:51 am 06:51 Sunny 64 17.8 53 11.7 67 67 SSE 10 17 29.96 1015 10 16 0.00 0.00
7:51 am 07:51 Sunny 67 19.4 54 12.2 63 63 SSE 12 19 29.98 1015 10 16 0.00 0.00
8:51 am 08:51 Sunny 74 23.3 53 11.7 48 48 SSE 9 15 29.98 1015 10 16 0.00 0.00
9:51 am 09:51 Sunny 79 26.1 53 11.7 41 41 SSE 10 17 29.96 1015 10 16 0.00 0.00
10:51 am 10:51 Sunny 80 26.7 53 11.7 39 39 SSE 10 17 29.94 1014 10 16 0.00 0.00
11:51 am 11:51 Sunny 83 28.3 51 10.6 33 33 SSE 8 13 29.91 1013 10 16 0.00 0.00
12:51 pm 12:51 Sunny 86 30 51 10.6 30 30 SE 10 17 29.87 1012 10 16 0.00 0.00
1:51 pm 13:51 Sunny 87 30.6 51 10.6 29 29 VRB 6 9 29.83 1010 10 16 0.00 0.00
2:51 pm 14:51 Mostly Sunny 87 30.6 50 10 28 28 VRB 6 9 29.80 1009 10 16 0.00 0.00
3:51 pm 15:51 Sunny 87 30.6 49 9.4 27 27 SSW 7 11 29.80 1009 10 16 0.00 0.00
4:51 pm 16:51 Sunny 86 30 49 9.4 28 28 SE 3 6 29.79 1009 10 16 0.00 0.00
5:51 pm 17:51 Sunny 84 28.9 45 7.2 26 26 SSW 5 7 29.81 1009 10 16 0.00 0.00
6:51 pm 18:51 Clear 81 27.2 47 8.3 30 30 Calm 29.82 1010 10 16 0.00 0.00
7:51 pm 19:51 Clear 76 24.4 45 7.2 33 33 NE 7 11 29.84 1011 10 16 0.00 0.00
8:51 pm 20:51 Cloudy with Heavy Rain 70 21.1 60 15.6 71 71 NW 17 28 29.88 1012 5 8 0.01 0.13
9:10 pm 21:10 Mostly Cloudy with Thunderstorms 70 21.1 59 15 68 68 W 13 20 29.88 1012 10 16 0.11 2.79
9:35 pm 21:35 Cloudy with Nearby Thunderstorms 69 20.6 58 14.4 68 68 WNW 20 31 29.90 1013 10 16 0.11 2.79
9:51 pm 21:51 Cloudy with Nearby Thunderstorms 67 19.4 58 14.4 73 73 WNW 24 39 29.92 1013 10 16 0.11 2.79
10:08 pm 22:08 Cloudy with Thunderstorms 67 19.4 57 13.9 71 71 WNW 18 30 29.92 1013 10 16 0.02 0.51
10:22 pm 22:22 Cloudy with Nearby Thunderstorms 68 20 57 13.9 68 68 WNW 17 28 29.91 1013 10 16 0.02 0.51
10:48 pm 22:48 Mostly Cloudy 66 19 57 14 73 73 NW 9 15 29.93 1014 10 16 0.02 0.51
10:51 pm 22:51 Mostly Cloudy 68 20 57 13.9 68 68 N 8 13 29.91 1013 10 16 0.02 0.51
11:51 pm 23:51 Mostly Clear 68 20 57 13.9 68 68 W 6 9 29.89 1012 10 16 0.00 0.00

Powered by AerisWeather